This is the latest recevied weather packets stored in our database for station/object KB1YTR-1. If no packets are shown the sender has not sent any weather packets the latest 10 day(s).
| Time | Temp. | Humidity | Pressure | Rain* | Wind** | Luminosity | Snow |
|---|---|---|---|---|---|---|---|
| 1788025920 | 16.67° C | 99% | 1013.5 hPa | 0 mm | - | - | - |
| 1788025191 | 16.67° C | 99% | 1013.4 hPa | 0 mm | - | - | - |
| 1788024365 | 16.67° C | 99% | 1013.2 hPa | 0 mm | - | - | - |
| 1788023625 | 16.67° C | 99% | 1013.5 hPa | 0 mm | - | - | - |
| 1788022782 | 16.67° C | 99% | 1013.6 hPa | 0 mm | - | - | - |
| 1788021905 | 16.11° C | 99% | 1013.5 hPa | 0 mm | - | - | - |
| 1788021174 | 15.56° C | 99% | 1013.8 hPa | 0 mm | - | - | - |
| 1788020291 | 15.56° C | 99% | 1013.6 hPa | 0 mm | - | - | - |
| 1788019471 | 15° C | 99% | 1013.7 hPa | 0 mm | - | - | - |
| 1788018595 | 15° C | 99% | 1013.8 hPa | 0 mm | - | - | - |
| 1788017871 | 15° C | 99% | 1013.7 hPa | 0 mm | - | - | - |
| 1788016990 | 15° C | 99% | 1013.4 hPa | 0 mm | - | - | - |
| 1788016265 | 15° C | 99% | 1013.7 hPa | 0 mm | - | - | - |
| 1788015490 | 15° C | 99% | 1013.8 hPa | 0 mm | - | - | - |
| 1788014710 | 15° C | 99% | 1013.9 hPa | 0 mm | - | - | - |
| 1788013884 | 15° C | 99% | 1013.8 hPa | 0.25 mm | - | - | - |
| 1788013155 | 15° C | 99% | 1013.5 hPa | 0.76 mm | - | - | - |
| 1788012420 | 15° C | 99% | 1014.1 hPa | 1.27 mm | - | - | - |
| 1788011520 | 14.44° C | 99% | 1014.4 hPa | 1.52 mm | - | - | - |
| 1788010719 | 14.44° C | 99% | 1015.2 hPa | 1.78 mm | - | - | - |
| 1788009866 | 14.44° C | 99% | 1015 hPa | 1.52 mm | - | - | - |
| 1788009105 | 14.44° C | 99% | 1014.5 hPa | 1.27 mm | - | - | - |
| 1788008350 | 14.44° C | 99% | 1015 hPa | 1.02 mm | - | - | - |
| 1788007526 | 14.44° C | 99% | 1015 hPa | 0.76 mm | - | - | - |
| 1788006800 | 14.44° C | 99% | 1014.7 hPa | 0.25 mm | - | - | - |
* Rain latest hour (hover to see other rain measurements)
** Current wind speed in m/s (hover to see current wind gust speed)